Погода Троицко-Печерск

Погода Троицко-Печерск : погода сейчас, прогноз погоды и архив. Всё, что Вы хотите узнать о погоде Троицко-Печерск!

Хотите узнать прогноз погоды Троицко-Печерск? Тогда Вам сюда: Погода Троицко-Печерск

Поиск расширенной информации на нашем сайте:

Полезная информация:

Другие новости

Новости СМИ2

Главная страница сайта

Новости сайта

03.07.2017

Напоминаем, что на нашем специализированном сайте Метеоцентр.Азия вы можете получить высокодетализированные автоматические прогнозы погоды по пунктам России, СНГ и мира в авиационном формате (включающие направление и скорость ветра, видимость, явления погоды, количество и форму облачности, нижнюю и верхнюю границу облачности).

Рекомендуем:

Погода Троицко-Печерск - сегодня

Время (UTC), дата Ветер
(°,м/с) 
Видим.   Явления Облачность Т
(°С)
Тd
(°С)
f(%) Тe
(°С)
Pmin
(гПа)
dP
(гПа)
Po
(мм)
O2
(г/м3)
Тmin Tmax R s Состояние
почвы
03 16.07.19 050 (СВ) 20000 м  в посл. час дождь  10/8 500 м средняя 
[Sc diur, vesp|As op]
+16.9 +15.9 94 +29  998.4  -2.8  737  276  +14      мокрая 
06 16.07.19 060 (СВ) 20000 м  {дождь}  9/6 750 м средняя 
[Sc|As op]
+20.1 +17.6 86 +34  997.5  -0.7  737  272           
09 16.07.19 090 (В) 4{11}  20000 м    9/5 600 м кучево-дожд., средняя 
[Cb cap|As op]
+22.6 +17.8 74 +37  996.2  -1.1  736  270           
12 16.07.19 320 (СЗ) 2{11}  10 км  гроза, ливневой дождь  10/8 480 м кучево-дожд., средняя 
[Cb cap|Ac und]
+16.2 +14.5 90 +25  998  1.3  737  277           
15 16.07.19 290 (З) 20000 м  в посл. час ливневой дождь{гроза}  10/6 600 м кучево-дожд., средняя 
[Cb cap|Ac und]
+14.1 +13 93 +20  1000.1  2.1  738  280    +24.9     
18 16.07.19 300 (СЗ) 20000 м  {гроза, ливн. осадки}  10/10 360 м кучево-дожд. 
[Cb cap]
+11 +9.7 92 +12  1003.3  2.9  740  285           
21 16.07.19 310 (СЗ) 20000 м  {ливн. осадки}  10/10 330 м кучево-дожд. 
[Cb cap]
+10.4 +8.9 90 +10  1005.7  2.3  742  286           
00 17.07.19 310 (СЗ) 20000 м  {ливн. осадки}  10/10 400 м 
[Sc diur, vesp]
+11.1 +9.1 87 +11  1008.1  2.4  744  286           
03 17.07.19 300 (СЗ) 20000 м    10/10 600 м 
[Sc]
+11.9 +9.4 85 +13  1010.1  2.4  745  286  +10.3        мокрая 
06 17.07.19 310 (СЗ) 20000 м    10/3 600 м средняя, верхняя 
[Sc|Ac As|Cs]
+14.8 +9.6 71 +16  1011.3  1.4  746  284           
09 17.07.19 320 (СЗ) 3{10}  20000 м    10/3 600 м средняя, верхняя 
[Sc|As trans|Cs]
+17 +9.3 60 +17  1012.1  0.9  747  282           
12 17.07.19 320 (СЗ) 3{10}  20000 м    10/3 600 м средняя, верхняя 
[Cu Sc|Ac As|Cs]
+17.9 +9.3 57 +18  1012.9  0.8  748  281           
15 17.07.19 330 (СЗ) 20000 м    10/0 средняя 
[Ac As]
+16.3 +8.6 60 +17  1013.6  0.6  748  283    +18.3       
18 17.07.19 330 (СЗ) 20000 м    9/0 средняя 
[Ac trans]
+14.1 +8.7 70 +15  1013.7  748  285           
21 17.07.19 340 (С) 20000 м  слаб. дождь  10/10 420 м 
[Sc]
+11.7 +9.8 88 +13  1013.3  -0.5  748  287           
00 18.07.19 330 (СЗ) 10 км  слаб. дождь  10/10 270 м 
[Frnb]
+10.8 +9.7 93 +12  1012.7  -0.6  747  288           
03 18.07.19 350 (С) 20000 м  в посл. час ливневой дождь  10/10 330 м 
[Frnb]
+9.7 +8.6 93 +9  1012.5  -0.3  747  289  +9.7      мокрая 
06 18.07.19 330 (СЗ) 10 км  слаб. дождь{ливн. осадки}  10/10 360 м 
[Sc diur, vesp]
+9.5 +8.4 93 +10  1012.2  -0.3  747  289  +9.4         
09 18.07.19 330 (СЗ) 20000 м  в посл. час дождь  10/10 360 м 
[Frnb]
+10.4 +9 91 +10  1012.1  0.1  747  288           
12 18.07.19 340 (С) 20000 м  в посл. час дождь  10/10 400 м 
[Frnb]
+10.2 +9 92 +10  1012.4  0.3  747  289           
15 18.07.19 330 (СЗ) 20000 м  в посл. час дождь  10/10 420 м 
[Sc]
+10.1 +8.9 92 +11  1011.7  -0.7  746  288    +10.8     
18 18.07.19 340 (С) 10 км  слаб. ливневой дождь  10/10 500 м кучево-дожд. 
[Cb cap]
+9.3 +8.3 93 +10  1011.1  -0.6  746  289           
21 18.07.19 280 (З) 10 км  слаб. ливневой дождь  10/10 420 м кучево-дожд. 
[Cb cap]
+8.7 +7.8 94 +10  1010.4  -0.7  746  290           
00 19.07.19 280 (З) 20000 м  {ливн. осадки}  10/10 270 м 
[Sc diur, vesp]
+8.7 +7.9 95 +10  1010.1  -0.3  745  290           
03 19.07.19 280 (З) 20000 м    10/10 800 м 
[Sc]
+9.6 +8.2 91 +11  1009.8  -0.3  745  289  +8.6      мокрая 
Время (UTC), дата Ветер
(°,м/с) 
Видим.   Явления Облачность Т
(°С)
Тd
(°С)
f(%) Тe
(°С)
Pmin
(гПа)
dP
(гПа)
Po
(мм)
O2
(г/м3)
Тmin Tmax R s Состояние
почвы

Для получения пояснительной информации подведите курсор к названию столбца.

ПОГОДА Троицко-Печерск - архив

Всё, что Вы хотите узнать о погоде Троицко-Печерск - удобно и подробно!

Выберите нужную дату (начиная с 1 января 2018* года) и нажмите кнопку "Найти".
Будут отображены архивные сводки погоды по пункту Троицко-Печерск, начиная с указанной даты.


Отображать данные в формате CSV (для использования в таблицах Excel)


Внимание! Наш архив погоды предназначен исключительно для личного некоммерческого использования в познавательных целях. Если Вам необходимы официальные справки о состоянии погоды (для производственных, юридических, коммерческих и т.п. целей), обращайтесь в органы Росгидромета.

*Примечание: данная дата относится к архиву по метеостанциям СССР (Россия, СНГ, Балтия).
Архив по метеостанциям Зарубежной Европы и Азии (кроме Китая) хранится 10 дней, по другим регионам земного шара (Китай, Африка, Америка, Австралия, Океания) - 1 день.

Троицко-Печерск - район местоположения метеостанции


Название, широта, долгота, высота метеостанции:
Троицко-Печерск 62.7°ш. 56.2°д. 139 м над ур. моря [Российская Федерация]

Дополнительная информация

В oтличие oт бoльшинства пoгoдных сайтoв мы публикуем пoдрoбную метеoинфoрмацию в детальнoм прoфессиoнальнoм фoрмате.

Характеристики температуры и влажнoсти вoздуха измеряются на высoте 2 м в тени вдали oт зданий и деревьев.
Скoрoсть ветра измеряется на высoте 10 м (на урoвне рoста челoвека скoрoсть ветра ниже в 1.5-2 раза). Если метеoстанция нахoдится в гoрoде или в лесу, тo скoрoсть ветра занижена на 2-4 м/с пo сравнению с oткрытым местoм. Скoрoсть ветра над акватoриями крупных рек и oзёр, а также на вершинах хoлмoв на 2-5 м/с выше, чем в oбычных услoвиях.
Атмoсфернoе давление в разных тoчках местнoсти мoжет значительнo oтличаться oт давления на метеoстанции, в зависимoсти oт услoвий рельефа (при пoдъёме на 10 м давление пoнижается примернo на 1 мм рт.ст.).